TimeEDT,TemperatureF,Dew PointF,Humidity,Sea Level PressureIn,VisibilityMPH,Wind Direction,Wind SpeedMPH,Gust SpeedMPH,PrecipitationIn,Events,Conditions,WindDirDegrees,DateUTC
12:20 AM,35.6,32.0,87,29.52,4.0,WSW,20.7,33.4,0.02,Rain,Rain,240,2013-03-25 04:20:00
12:35 AM,37.4,32.0,81,29.53,10.0,WSW,23.0,33.4,0.02,,Overcast,250,2013-03-25 04:35:00
12:44 AM,35.6,30.2,81,29.54,10.0,West,24.2,35.7,0.02,Rain,Light Rain,260,2013-03-25 04:44:00
12:53 AM,35.1,30.9,85,29.55,10.0,WSW,24.2,35.7,0.02,Rain,Light Rain,250,2013-03-25 04:53:00
1:14 AM,35.6,28.4,75,29.55,9.0,WSW,24.2,32.2,0.00,Snow,Light Snow,250,2013-03-25 05:14:00
1:53 AM,35.1,28.0,76,29.57,10.0,WSW,19.6,28.8,0.00,,Overcast,250,2013-03-25 05:53:00
2:24 AM,33.8,26.6,75,29.57,10.0,WSW,16.1,26.5,N/A,,Overcast,240,2013-03-25 06:24:00
2:53 AM,34.0,26.1,73,29.59,10.0,WSW,13.8,27.6,0.00,,Overcast,250,2013-03-25 06:53:00
3:53 AM,32.0,27.0,82,29.59,3.0,WSW,12.7,-,0.00,Snow,Light Snow,240,2013-03-25 07:53:00
4:02 AM,30.2,26.6,86,29.58,1.8,WSW,13.8,-,0.00,Snow,Light Snow,240,2013-03-25 08:02:00
4:11 AM,30.2,28.4,93,29.58,2.5,WSW,13.8,19.6,0.00,Snow,Light Snow,240,2013-03-25 08:11:00
4:22 AM,30.2,28.4,93,29.57,3.0,SW,13.8,21.9,0.00,Snow,Light Snow,230,2013-03-25 08:22:00
4:27 AM,30.2,28.4,93,29.57,2.5,SW,10.4,21.9,0.00,Snow,Light Snow,230,2013-03-25 08:27:00
4:53 AM,30.9,28.0,89,29.58,2.5,SW,11.5,21.9,0.00,Snow,Light Snow,220,2013-03-25 08:53:00
5:20 AM,32.0,26.6,80,29.57,5.0,SW,16.1,26.5,0.00,Snow,Light Snow,230,2013-03-25 09:20:00
5:53 AM,30.9,27.0,85,29.59,4.0,WSW,15.0,24.2,0.00,Snow,Light Snow,250,2013-03-25 09:53:00
6:39 AM,30.2,26.6,86,29.60,2.5,West,15.0,23.0,0.01,Snow,Light Snow,260,2013-03-25 10:39:00
6:48 AM,30.2,26.6,86,29.60,7.0,West,15.0,27.6,0.01,Snow,Light Snow,270,2013-03-25 10:48:00
6:53 AM,30.9,26.1,82,29.61,9.0,West,10.4,27.6,0.01,,Overcast,270,2013-03-25 10:53:00
7:18 AM,30.2,26.6,86,29.61,5.0,West,13.8,-,0.00,Snow,Light Snow,260,2013-03-25 11:18:00
8:02 AM,30.2,26.6,86,29.62,0.2,West,13.8,26.5,0.00,Fog-Snow,Snow,260,2013-03-25 12:02:00
8:12 AM,30.2,28.4,93,29.62,1.0,WSW,11.5,-,0.00,Snow,Light Snow,250,2013-03-25 12:12:00
8:16 AM,30.2,26.6,86,29.62,2.0,WSW,13.8,-,0.00,Snow,Light Snow,250,2013-03-25 12:16:00
8:30 AM,30.2,26.6,86,29.63,1.2,West,15.0,23.0,0.00,Snow,Light Snow,260,2013-03-25 12:30:00
8:51 AM,30.2,28.4,93,29.63,0.8,WSW,11.5,-,0.00,Snow,Light Snow,250,2013-03-25 12:51:00
8:53 AM,30.0,28.0,92,29.65,0.8,WSW,15.0,-,0.00,Snow,Light Snow,250,2013-03-25 12:53:00
9:00 AM,30.2,28.4,93,29.63,0.5,WSW,12.7,-,0.00,Fog-Snow,Snow,250,2013-03-25 13:00:00
9:44 AM,30.2,28.4,93,29.64,1.2,West,17.3,-,0.01,Snow,Light Snow,260,2013-03-25 13:44:00
9:53 AM,30.9,28.9,92,29.67,1.2,WSW,15.0,21.9,0.01,Snow,Light Snow,250,2013-03-25 13:53:00
10:19 AM,32.0,28.4,87,29.66,1.2,West,21.9,31.1,0.00,Snow,Light Snow,260,2013-03-25 14:19:00
10:31 AM,32.0,26.6,80,29.66,3.0,West,21.9,31.1,0.00,Snow,Light Snow,260,2013-03-25 14:31:00
10:41 AM,32.0,26.6,80,29.67,5.0,West,21.9,31.1,0.00,Snow,Light Snow,260,2013-03-25 14:41:00
10:53 AM,32.0,26.1,79,29.69,9.0,West,17.3,32.2,0.00,,Overcast,270,2013-03-25 14:53:00
11:53 AM,32.0,27.0,82,29.72,8.0,West,16.1,27.6,0.00,,Overcast,260,2013-03-25 15:53:00
12:09 PM,32.0,28.4,87,29.71,2.5,West,19.6,27.6,0.00,Snow,Light Snow,270,2013-03-25 16:09:00
12:20 PM,32.0,28.4,87,29.71,1.5,West,16.1,27.6,0.00,Snow,Light Snow,270,2013-03-25 16:20:00
12:30 PM,33.8,28.4,81,29.71,2.5,West,15.0,24.2,0.00,Snow,Light Snow,270,2013-03-25 16:30:00
12:40 PM,32.0,28.4,87,29.72,1.5,West,11.5,-,0.00,Snow,Light Snow,270,2013-03-25 16:40:00
12:53 PM,33.1,28.9,85,29.74,1.2,West,20.7,27.6,0.00,Snow,Light Snow,280,2013-03-25 16:53:00
12:56 PM,33.8,28.4,81,29.72,2.0,West,19.6,27.6,0.00,Snow,Light Snow,270,2013-03-25 16:56:00
12:58 PM,33.8,28.4,81,29.73,3.0,West,20.7,27.6,0.00,Snow,Light Snow,280,2013-03-25 16:58:00
1:20 PM,33.8,26.6,75,29.73,1.5,West,17.3,25.3,0.00,Snow,Light Snow,270,2013-03-25 17:20:00
1:28 PM,30.2,28.4,93,29.74,0.2,West,16.1,24.2,0.01,Fog-Snow,Snow,270,2013-03-25 17:28:00
1:35 PM,33.8,28.4,81,29.74,2.5,West,18.4,24.2,0.01,Snow,Light Snow,270,2013-03-25 17:35:00
1:53 PM,34.0,30.0,85,29.76,5.0,WNW,19.6,28.8,0.01,Snow,Light Snow,290,2013-03-25 17:53:00
2:23 PM,32.0,28.4,87,29.75,1.8,West,16.1,29.9,0.00,Snow,Light Snow,280,2013-03-25 18:23:00
2:36 PM,33.8,28.4,81,29.75,3.0,West,20.7,31.1,0.00,Snow,Light Snow,280,2013-03-25 18:36:00
2:51 PM,33.8,28.4,81,29.75,2.0,West,15.0,26.5,0.00,Snow,Light Snow,280,2013-03-25 18:51:00
2:53 PM,32.0,28.9,88,29.78,1.5,West,13.8,26.5,0.00,Snow,Light Snow,280,2013-03-25 18:53:00
3:03 PM,30.2,28.4,93,29.76,0.5,West,16.1,24.2,0.01,Fog-Snow,Snow,280,2013-03-25 19:03:00
3:12 PM,32.0,28.4,87,29.76,1.0,West,17.3,24.2,0.01,Snow,Light Snow,280,2013-03-25 19:12:00
3:15 PM,32.0,28.4,87,29.76,3.0,West,17.3,26.5,0.01,Snow,Light Snow,280,2013-03-25 19:15:00
3:27 PM,33.8,28.4,81,29.76,7.0,WNW,17.3,25.3,0.01,Snow,Light Snow,290,2013-03-25 19:27:00
3:53 PM,34.0,28.9,82,29.79,4.0,WNW,17.3,25.3,0.01,Snow,Light Snow,290,2013-03-25 19:53:00
4:19 PM,33.8,28.4,81,29.78,10.0,West,20.7,28.8,0.00,,Overcast,270,2013-03-25 20:19:00
4:53 PM,35.1,28.0,76,29.82,10.0,West,20.7,27.6,0.00,,Overcast,280,2013-03-25 20:53:00
5:03 PM,33.8,26.6,75,29.80,1.8,West,18.4,26.5,0.00,Snow,Light Snow,280,2013-03-25 21:03:00
5:14 PM,33.8,28.4,81,29.81,3.0,West,19.6,28.8,0.00,Snow,Light Snow,280,2013-03-25 21:14:00
5:23 PM,33.8,28.4,81,29.81,9.0,West,12.7,26.5,0.00,,Overcast,280,2013-03-25 21:23:00
5:36 PM,33.8,28.4,81,29.82,2.0,West,13.8,21.9,0.00,Snow,Light Snow,280,2013-03-25 21:36:00
5:40 PM,32.0,28.4,87,29.83,0.8,West,16.1,24.2,0.00,Snow,Light Snow,280,2013-03-25 21:40:00
5:49 PM,32.0,28.4,87,29.83,2.5,WNW,11.5,24.2,0.00,Snow,Light Snow,290,2013-03-25 21:49:00
5:53 PM,33.1,28.9,85,29.85,4.0,WNW,18.4,26.5,0.00,Snow,Light Snow,290,2013-03-25 21:53:00
6:03 PM,33.8,28.4,81,29.83,7.0,West,15.0,26.5,0.00,Snow,Light Snow,280,2013-03-25 22:03:00
6:53 PM,33.1,28.0,82,29.88,3.0,West,13.8,21.9,0.00,Snow,Light Snow,280,2013-03-25 22:53:00
7:00 PM,32.0,28.4,87,29.86,2.5,West,13.8,21.9,0.00,Snow,Light Snow,280,2013-03-25 23:00:00
7:23 PM,32.0,28.4,87,29.88,4.0,West,15.0,25.3,0.00,Snow,Light Snow,280,2013-03-25 23:23:00
7:42 PM,32.0,26.6,80,29.89,5.0,West,15.0,-,0.00,Snow,Light Snow,280,2013-03-25 23:42:00
7:53 PM,32.0,27.0,82,29.92,10.0,West,15.0,24.2,0.00,,Overcast,280,2013-03-25 23:53:00
8:14 PM,32.0,26.6,80,29.91,7.0,WNW,12.7,19.6,0.00,Snow,Light Snow,290,2013-03-26 00:14:00
8:53 PM,30.9,27.0,85,29.95,6.0,West,12.7,-,0.00,Snow,Light Snow,280,2013-03-26 00:53:00
9:53 PM,30.9,28.0,89,29.97,4.0,West,12.7,-,0.00,Snow,Light Snow,270,2013-03-26 01:53:00
10:00 PM,30.2,26.6,86,29.95,3.0,West,12.7,-,0.00,Snow,Light Snow,280,2013-03-26 02:00:00
10:53 PM,30.9,28.0,89,29.99,4.0,West,11.5,-,0.00,Snow,Light Snow,270,2013-03-26 02:53:00
11:53 PM,30.9,27.0,85,30.00,5.0,WNW,10.4,-,0.00,Snow,Light Snow,290,2013-03-26 03:53:00